Location: Unspecified
(29.9680°N, 0.0000°E)
Time: 10:44:54
(UTC+00:00)

Explorer 7 - Pass Details

Date: 02 July 2019
Orbit: 485 x 680 km, 50.3° (Epoch: 18 July)

Event Time Altitude Azimuth Distance (km) Brightness Sun altitude
Rises 12:54:12 0° 299° (WNW) 2,936 10.6 76.8°
Reaches altitude 10° 12:56:48 10° 287° (WNW) 2,052 10.0 76.3°
Maximum altitude 13:00:41 25° 232° (SW) 1,325 9.4 75.6°
Drops below altitude 10° 13:04:39 10° 177° (S) 2,097 10.0 74.8°
Sets 13:07:22 0° 164° (SSE) 3,015 10.6 74.3°
